EST,Max TemperatureF,Mean TemperatureF,Min TemperatureF,Max Dew PointF,MeanDew PointF,Min DewpointF,Max Humidity, Mean Humidity, Min Humidity, Max Sea Level PressureIn, Mean Sea Level PressureIn, Min Sea Level PressureIn, Max VisibilityMiles, Mean VisibilityMiles, Min VisibilityMiles, Max Wind SpeedMPH, Mean Wind SpeedMPH, Max Gust SpeedMPH,PrecipitationIn, CloudCover, Events, WindDirDegrees
2013-12-1,53,50,47,52,48,47,100,92,83,30.28,30.19,30.02,10,5,0,12,5,16,0.25,8,Fog-Rain,23
2013-12-2,54,52,49,49,48,47,100,89,77,30.01,29.87,29.77,10,10,5,12,6,17,0.04,6,Rain,28
2013-12-3,59,52,44,47,44,36,100,74,47,30.04,29.95,29.83,10,8,2,9,4,15,0.00,2,,327
2013-12-4,64,57,50,61,57,46,97,90,83,30.12,30.07,30.04,10,8,2,16,7,21,0.11,7,Rain,121
2013-12-5,69,60,50,64,55,48,100,94,87,30.20,30.14,30.12,10,5,0,10,4,15,0.00,2,Fog,250
2013-12-6,70,67,63,67,64,62,100,92,84,30.16,30.11,30.09,10,7,5,16,11,24,0.00,1,,232
2013-12-7,70,59,48,67,53,44,93,87,80,30.39,30.23,30.07,10,8,2,20,14,32,0.11,7,Rain,6
2013-12-8,54,51,48,53,50,44,100,93,86,30.37,30.29,30.23,10,5,0,22,10,32,0.23,8,Fog-Rain,14
2013-12-9,65,57,48,64,54,47,100,92,84,30.22,30.16,30.08,10,6,0,10,4,15,T,7,Fog-Rain,284
2013-12-10,68,55,42,65,54,37,100,88,76,30.30,29.99,29.82,10,4,0,24,8,36,0.12,7,Fog-Rain,315
2013-12-11,48,41,34,36,30,23,89,64,38,30.46,30.36,30.29,10,10,10,13,5,21,0.00,0,,305
2013-12-12,48,39,29,37,30,25,78,66,53,30.40,30.31,30.24,10,10,10,17,7,29,0.00,1,,360
2013-12-13,49,38,27,38,26,18,92,63,33,30.42,30.35,30.32,10,10,10,13,6,19,0.00,0,,296
2013-12-14,68,52,36,65,53,32,93,76,58,30.35,30.02,29.76,10,6,1,35,15,47,1.19,6,Rain,157
2013-12-15,64,56,48,63,55,36,100,83,66,30.03,29.79,29.68,10,6,1,18,9,28,0.40,6,Rain,272
2013-12-16,52,44,35,38,34,30,92,72,52,30.20,30.14,30.04,10,10,10,15,7,23,0.00,0,,315
2013-12-17,64,50,35,49,45,38,100,74,48,30.18,30.07,29.93,10,10,10,29,13,43,0.00,0,,251
2013-12-18,59,47,35,42,32,25,77,61,45,30.32,30.18,29.96,10,10,10,23,8,38,0.00,0,,323
2013-12-19,59,44,29,53,40,26,89,68,46,30.37,30.32,30.28,10,10,10,14,6,19,0.00,0,,255
2013-12-20,69,59,48,61,55,48,96,82,68,30.30,30.24,30.19,10,10,7,10,5,15,0.00,3,,236
2013-12-21,70,66,62,65,62,59,100,89,78,30.22,30.18,30.15,10,8,3,15,7,20,T,1,Rain,211
2013-12-22,71,69,66,68,65,64,100,90,79,30.19,30.16,30.13,7,5,2,16,9,22,0.16,4,Rain,226
2013-12-23,73,64,55,67,66,53,93,89,84,30.16,30.09,30.03,10,5,2,21,13,30,0.13,5,Rain,219
2013-12-24,55,49,42,52,41,26,100,77,53,30.38,30.16,30.03,10,8,2,18,11,32,0.37,7,Rain,358
2013-12-25,48,43,37,43,33,25,86,70,53,30.49,30.43,30.35,10,10,10,14,10,26,0.00,2,,22
2013-12-26,54,49,44,48,42,37,92,82,71,30.34,30.28,30.23,10,8,1,12,6,18,0.11,8,Rain,14
2013-12-27,53,49,45,40,36,34,83,69,54,30.42,30.37,30.31,10,10,10,15,8,24,0.00,1,,27
2013-12-28,61,52,43,54,41,36,89,74,59,30.41,30.33,30.19,10,10,10,12,6,16,0.00,0,,34
2013-12-29,69,62,54,66,60,53,100,86,72,30.17,29.85,29.73,10,5,0,29,18,45,0.68,6,Fog-Rain,217
2013-12-30,57,53,49,51,46,44,96,81,66,30.10,30.03,29.92,10,10,10,9,4,15,0.00,0,,316
2013-12-31,52,49,46,46,40,30,93,72,50,30.36,30.22,30.08,10,10,10,12,5,19,0.00,3,,328